• Join FlightAware (Why Join?)
  • Login
  • US Flag GB Flag 
08:59 EDT


 

Airport Tracker/Info


-or-


 

Live Flight TrackerFlight Track Log ✈ N36VE ✈ 11-Jan-2013 ✈ K59 - KJYR

Flight Track Log - Related Links

Times and Time Zones

All times are in EST time to prevent confusion due to time zone crossing. See the N36VE flight status page for this flight to view local times or setup timezone preferences in your user account.

Time Position Orientation Groundspeed Altitude Reporting Facility
EST Latitude Longitude Course Direction KTS MPH feet Rate Location/Type
11:07 39.7131 -95.4097 305° West 177 204 5,100  Level Kansas City Center
11:08 39.7336 -95.4478 305° West 148 170 5,700 420 Climbing Kansas City Center
11:09 39.7561 -95.4883 306° West 143 165 6,000 180 Climbing Kansas City Center
11:10 39.7850 -95.5403 306° West 154 177 6,100  Climbing Kansas City Center
11:11 39.8117 -95.5892 305° West 160 184 6,000 -60 Descending Kansas City Center
11:12 39.8383 -95.6328 309° West 171 197 6,000  Level Kansas City Center
11:13 39.8650 -95.6847 304° West 176 203 6,000 -60 Level Kansas City Center
11:14 39.8883 -95.7272 306° West 170 196 5,900 -60 Descending Minneapolis Center
11:15 39.9161 -95.7778 306° West 171 197 5,900  Level Minneapolis Center
11:16 39.9428 -95.8286 304° West 171 197 6,000  Climbing Minneapolis Center
11:17 39.9703 -95.8775 306° West 169 194 6,000  Level Minneapolis Center
11:18 39.9983 -95.9275 306° West 170 196 6,000  Level Minneapolis Center
11:19 40.0256 -95.9778 305° West 170 196 6,000  Level Minneapolis Center
11:20 40.0536 -96.0297 305° West 171 197 6,000  Level Minneapolis Center
11:21 40.0864 -96.0911 305° West 171 197 6,000  Level Minneapolis Center
11:22 40.1139 -96.1414 306° West 171 197 6,000  Level Minneapolis Center
11:23 40.1419 -96.1933 305° West 172 198 6,000  Level Minneapolis Center
11:24 40.1703 -96.2467 305° West 174 200 6,000  Level Minneapolis Center
11:25 40.1992 -96.2989 306° West 176 203 6,000  Level Minneapolis Center
11:26 40.2267 -96.3519 304° West 176 203 6,000  Level Minneapolis Center
11:27 40.2447 -96.3778 312° West 179 206 6,000  Level Minneapolis Center
11:28 40.2839 -96.4583 303° West 177 204 6,000  Level Minneapolis Center
11:29 40.3119 -96.5106 305° West 177 204 6,000  Level Minneapolis Center
11:30 40.3400 -96.5642 304° West 177 204 6,000  Level Minneapolis Center
11:31 40.3750 -96.6289 305° West 179 206 6,000  Level Minneapolis Center
11:32 40.4031 -96.6831 304° West 179 206 6,000  Level Minneapolis Center
11:33 40.4319 -96.7364 305° West 179 206 6,000  Level Minneapolis Center
11:34 40.4611 -96.7917 305° West 181 208 6,000  Level Minneapolis Center
11:35 40.4906 -96.8472 305° West 183 211 6,000  Level Minneapolis Center
11:36 40.5194 -96.9014 305° West 181 208 6,000  Level Minneapolis Center
11:37 40.5486 -96.9561 305° West 182 209 6,000  Level Minneapolis Center
11:38 40.5772 -97.0125 304° West 184 212 6,000  Level Minneapolis Center
11:39 40.6067 -97.0675 305° West 184 212 6,000  Level Minneapolis Center
11:40 40.6417 -97.1331 305° West 183 211 6,000  Level Minneapolis Center
11:41 40.6819 -97.1761 321° Northwest 192 221 6,000  Level Minneapolis Center
11:42 40.7258 -97.2158 326° Northwest 189 217 6,000  Level Minneapolis Center
11:43 40.7714 -97.2564 326° Northwest 199 229 6,000  Level Minneapolis Center
11:44 40.8164 -97.2947 327° Northwest 195 224 6,000  Level Minneapolis Center
11:45 40.8628 -97.3344 327° Northwest 196 226 6,000  Level Minneapolis Center
11:46 40.9092 -97.3764 326° Northwest 196 226 6,000  Level Minneapolis Center
11:47 40.9569 -97.4161 328° Northwest 199 229 6,000 -240 Level Minneapolis Center
11:48 41.0031 -97.4572 326° Northwest 199 229 5,600 -480 Descending Minneapolis Center
11:49 41.0494 -97.4981 326° Northwest 200 230 5,100 -540 Descending Minneapolis Center
11:50 41.0908 -97.5406 322° Northwest 194 223 4,500 -540 Descending Minneapolis Center
11:51 41.0875 -97.6056 266° West 144 166 4,100 -300 Descending Minneapolis Center
11:52 41.0811 -97.6419 257° West 108 124 4,000 -300 Descending Minneapolis Center
11:54 41.0533 -97.6400 177° South 109 125 3,500 -300 Descending Minneapolis Center
11:55 41.0306 -97.6342 169° South 104 120 3,400 -180 Descending Minneapolis Center
11:56 41.0067 -97.6367 185° South 105 121 3,200 -120 Descending Minneapolis Center
11:57 40.9839 -97.6325 172° South 88 101 3,200 -120 Level Minneapolis Center
11:58 40.9611 -97.6303 176° South 88 101 3,000 -240 Descending Minneapolis Center
12:00 40.8964 -97.6241 176° South  Level Estimated
12:07 40.8964 -97.6241 176° South  Level Estimated
12:08 40.8964 -97.6241 176° South  Level Estimated
12:09 40.8964 -97.6241 176° South  Level Estimated
12:10 40.8964 -97.6241 176° South  Level Estimated
12:11 40.8964 -97.6241 176° South  Level Estimated